This is the latest recevied weather packets stored in our database for station/object F4AMY-13. If no packets are shown the sender has not sent any weather packets the latest 10 day(s).
| Time | Temp. | Humidity | Pressure | Rain* | Wind** | Luminosity | Snow |
|---|---|---|---|---|---|---|---|
| 1777866421 | 15° C | 68% | 1013.7 hPa | 0 mm | 0 m/s | 0 W/m² | - |
| 1777866121 | 15° C | 69% | 1013.9 hPa | 0 mm | 0 m/s | 0 W/m² | - |
| 1777865820 | 15° C | 64% | 1013.9 hPa | 0 mm | 0 m/s | 0 W/m² | - |
| 1777865520 | 15° C | 60% | 1013.8 hPa | 0 mm | 0 m/s | 0 W/m² | - |
| 1777865220 | 15° C | 59% | 1013.6 hPa | 0 mm | 0 m/s | 0 W/m² | - |
| 1777864920 | 15° C | 59% | 1013.3 hPa | 0 mm | 0 m/s | 0 W/m² | - |
| 1777864620 | 15° C | 59% | 1013.5 hPa | 0 mm | 0 m/s | 0 W/m² | - |
| 1777864320 | 15° C | 57% | 1013.4 hPa | 0 mm | 0 m/s | 0 W/m² | - |
| 1777864020 | 15° C | 56% | 1013.3 hPa | 0 mm | 0 m/s | 0 W/m² | - |
| 1777863720 | 15° C | 56% | 1013.3 hPa | 0 mm | 0 m/s | 0 W/m² | - |
| 1777863420 | 15° C | 54% | 1013.4 hPa | 0 mm | 0 m/s | 0 W/m² | - |
| 1777863120 | 15° C | 53% | 1013.4 hPa | 0 mm | 0 m/s | 0 W/m² | - |
| 1777862820 | 15° C | 53% | 1013.5 hPa | 0 mm | 0 m/s | 0 W/m² | - |
| 1777862520 | 15° C | 51% | 1013.3 hPa | 0 mm | 0 m/s | 0 W/m² | - |
| 1777862220 | 15° C | 52% | 1013.4 hPa | 0 mm | 0 m/s | 0 W/m² | - |
| 1777861920 | 15° C | 52% | 1013.5 hPa | 0 mm | 0 m/s | 0 W/m² | - |
| 1777861620 | 15° C | 52% | 1013.6 hPa | 0 mm | 0 m/s | 0 W/m² | - |
| 1777861320 | 15° C | 51% | 1013.4 hPa | 0 mm | 0 m/s | 0 W/m² | - |
| 1777861020 | 15° C | 51% | 1013.4 hPa | 0 mm | 0 m/s | 0 W/m² | - |
| 1777860720 | 15° C | 50% | 1013.5 hPa | 0 mm | 0 m/s | 0 W/m² | - |
| 1777860420 | 15° C | 51% | 1013.6 hPa | 0 mm | 0 m/s | 0 W/m² | - |
| 1777860119 | 15° C | 53% | 1013.8 hPa | 0 mm | 0 m/s | 0 W/m² | - |
| 1777859819 | 15° C | 51% | 1013.7 hPa | 0 mm | 0 m/s | 0 W/m² | - |
| 1777859519 | 15° C | 52% | 1013.6 hPa | 0 mm | 0 m/s | 0 W/m² | - |
| 1777859219 | 15° C | 52% | 1013.8 hPa | 0 mm | 0 m/s | 0 W/m² | - |
* Rain latest hour (hover to see other rain measurements)
** Current wind speed in m/s (hover to see current wind gust speed)